Wind_Speed
21 23 24 25 26 26 28 28 29 32 34 35 36 36 37 38 39 40 41 43 43 42 42 43 44 44 44 45 46 46 47 47 48 48 49 50 51 52 52 53 54 54 54
20 21 23 24 26 27 27 28 30 33 35 35 36 37 38 38 39 40 40 41 42 42 43 44 45 44 44 45 45 46 47 48 48 49 50 51 52 53 54 55 55 54 54
20 20 21 23 24 26 27 29 31 33 35 35 36 37 39 39 39 40 40 41 42 43 44 44 44 45 45 46 46 47 48 48 48 50 51 52 53 54 54 55 55 55 55
21 21 21 23 24 25 27 30 31 33 35 36 37 38 39 39 39 39 40 42 43 44 44 45 45 46 46 47 47 48 49 49 50 51 52 53 54 55 55 55 55 56 56
22 22 23 23 24 25 27 29 31 33 34 35 36 37 38 39 39 39 40 41 43 44 45 45 45 46 46 47 48 48 49 50 52 52 53 54 54 55 55 55 55 55 56
23 24 25 25 25 26 28 29 32 33 35 36 36 36 38 39 39 40 41 41 42 43 44 45 45 46 47 48 49 50 51 52 53 53 53 54 54 55 55 55 55 55 56
25 25 25 25 25 26 28 30 32 34 35 36 36 37 38 39 40 41 41 42 43 43 44 45 46 48 49 50 51 52 53 54 54 55 54 54 55 55 55 55 56 56 56
28 28 28 28 28 28 29 30 31 32 33 34 35 37 38 39 41 42 43 44 44 45 46 47 48 49 51 52 52 53 53 54 54 54 54 54 55 55 56 56 56 56 56
30 30 30 30 29 29 29 29 30 32 34 36 36 37 38 40 42 44 44 45 46 47 49 49 49 50 50 51 52 53 53 53 53 54 54 55 56 56 56 57 57 57 56
31 31 31 31 31 31 31 31 32 33 35 37 38 39 40 41 43 44 44 45 47 48 50 51 51 51 51 51 52 53 53 53 54 54 54 54 55 55 56 56 57 57 56
32 33 33 32 33 33 33 33 34 35 36 37 39 40 41 42 43 44 44 45 46 47 48 49 50 51 51 52 53 54 54 54 54 55 54 54 55 55 55 55 56 55 55
33 33 34 34 35 35 35 35 36 37 38 39 39 40 41 41 42 42 44 45 45 46 47 49 50 51 52 52 52 53 54 54 54 54 54 54 54 54 54 54 55 55 54
34 34 35 35 36 37 37 37 37 37 38 39 40 40 40 41 42 43 44 45 46 47 48 49 50 51 51 52 52 53 53 53 53 53 53 54 53 53 53 53 53 52 52
34 34 35 36 37 37 38 38 38 38 38 38 39 40 41 42 43 44 45 45 46 46 47 47 48 49 50 50 51 52 52 52 53 53 52 52 52 52 52 51 51 51 51
35 35 36 36 37 37 38 38 38 38 39 40 41 41 42 43 43 44 45 44 44 44 45 45 46 46 47 48 49 50 51 51 51 51 50 49 49 49 49 50 50 50 49
36 37 37 37 38 38 38 38 38 39 40 41 42 42 42 42 42 42 42 43 43 43 44 44 44 45 46 46 47 48 49 49 48 48 48 47 47 47 47 47 47 46 46
37 37 38 38 39 39 39 39 39 40 41 41 41 41 41 41 41 41 41 41 42 42 43 44 44 45 45 46 47 47 47 47 47 47 46 46 45 45 44 44 44 44 44
37 37 38 38 39 39 39 40 40 40 40 40 40 40 40 40 40 40 40 41 42 43 43 44 44 45 45 46 46 46 46 46 45 45 44 43 43 42 42 42 42 41 41
37 38 38 38 39 39 39 39 40 40 40 40 40 40 41 40 40 40 41 42 42 43 44 44 45 45 45 45 45 45 44 43 43 42 41 40 40 40 39 39 39 38 38
38 38 38 38 38 39 39 39 39 40 40 40 40 40 41 41 41 41 42 43 43 44 44 44 45 45 45 44 44 43 42 41 40 39 38 38 38 37 37 37 36 36 36
38 39 39 39 39 39 40 40 39 39 39 39 40 41 41 41 42 42 43 43 43 43 44 43 43 42 42 42 42 40 39 38 37 37 37 37 36 35 35 35 35 35 35
39 39 40 40 40 40 40 40 40 40 40 40 40 40 41 41 41 42 42 42 42 42 41 40 40 40 39 39 38 37 37 36 36 36 35 35 34 34 34 34 34 34 34
39 39 40 40 40 40 40 40 40 41 41 41 41 41 41 41 41 41 40 40 40 39 39 38 38 37 37 36 35 35 35 35 34 34 33 33 32 32 32 32 32 32 32
39 39 40 40 40 40 41 41 41 42 41 41 41 41 41 40 39 39 38 38 38 38 38 37 36 36 35 35 34 34 33 33 32 31 31 31 31 31 31 31 30 30 29
39 39 39 39 40 41 41 41 41 41 41 40 40 39 39 38 37 36 36 36 36 36 35 34 34 33 33 33 32 32 31 31 31 30 30 30 30 29 29 28 28 28 27
38 38 39 39 40 40 40 40 40 40 39 38 38 37 36 35 34 34 34 33 33 32 32 32 32 32 31 31 30 30 30 29 28 28 28 28 27 27 27 27 26 26 25
Wind_Direction
262 255 250 249 245 243 243 240 241 241 240 242 242 242 244 247 248 250 252 253 254 255 255 257 259 260 262 264 265 266 268 270 272 274 276 277 277 278 278 278 278 280 281
262 256 252 249 249 248 245 245 245 243 243 243 244 245 247 248 250 251 254 254 255 256 257 259 260 260 261 263 265 267 269 271 273 275 276 277 278 278 279 280 280 281 282
262 258 254 250 250 251 250 248 248 247 245 245 246 248 249 249 250 253 255 256 256 256 257 259 259 260 261 263 265 267 270 272 274 276 276 277 277 278 280 281 281 281 281
265 262 257 254 253 253 254 251 249 248 246 245 247 249 251 250 252 254 255 256 255 255 256 258 259 260 262 264 266 269 271 273 275 276 276 277 278 279 280 281 282 283 283
264 263 261 260 258 256 253 250 250 251 250 249 249 251 252 252 253 254 254 255 256 256 257 258 260 261 263 266 268 270 272 273 275 275 277 277 278 279 280 281 282 283 283
266 265 263 262 264 261 257 254 253 254 254 252 252 252 253 254 254 255 256 257 258 259 259 261 262 264 266 268 270 271 273 275 276 276 277 278 279 280 280 281 282 283 284
270 269 267 267 266 264 262 259 257 255 256 255 255 255 254 254 255 255 256 258 260 260 261 263 265 267 268 270 272 273 274 275 276 276 277 279 280 280 280 281 282 283 284
271 272 271 270 268 266 265 264 260 258 257 257 257 257 257 257 258 258 260 261 263 263 263 264 266 268 269 271 273 274 275 275 275 276 277 278 278 279 280 281 283 283 283
271 271 271 271 270 269 269 267 264 261 261 260 260 261 262 262 261 262 263 264 265 265 264 265 267 269 271 272 273 274 275 275 276 277 277 278 279 280 281 282 283 283 283
272 272 271 271 271 271 270 268 268 266 265 265 264 266 266 266 265 265 267 267 268 268 268 268 269 271 272 273 274 274 275 275 275 276 278 278 279 280 281 282 283 283 283
272 272 271 271 271 272 271 270 270 269 268 268 269 269 269 269 269 269 268 269 270 270 271 271 271 272 274 275 275 276 276 276 276 277 278 278 279 280 281 281 282 283 284
272 272 272 272 272 272 272 271 271 270 270 270 271 272 272 272 272 271 270 270 271 272 273 273 273 274 276 276 277 277 277 278 278 278 278 279 279 280 280 281 282 283 283
272 273 273 273 274 274 274 273 273 273 273 272 272 272 272 272 273 272 271 272 273 274 274 274 274 275 276 277 277 277 278 278 279 279 279 279 279 280 281 282 283 284 284
273 273 273 274 274 274 274 275 275 275 275 274 274 273 273 272 272 272 273 273 274 275 275 276 276 276 277 277 277 278 278 279 279 280 280 280 281 281 281 282 283 284 284
273 274 274 275 275 275 275 276 276 276 276 276 275 275 275 274 273 273 274 274 275 276 277 277 277 277 278 278 278 278 279 279 280 281 281 281 281 281 282 283 283 283 283
273 274 275 275 276 276 275 276 276 277 277 277 277 277 277 277 276 275 276 276 276 278 278 278 279 279 279 280 280 280 280 280 281 282 282 281 282 282 283 283 283 283 284
274 275 275 276 276 276 276 276 277 277 278 278 278 278 278 278 277 276 276 277 277 278 279 280 280 281 281 281 281 281 282 282 282 282 281 281 281 282 282 282 283 283 284
275 275 276 276 276 276 276 277 278 278 278 278 278 278 278 278 277 277 277 278 278 279 280 280 281 282 282 283 283 283 283 283 282 281 281 280 281 281 282 283 283 283 284
275 276 276 277 277 277 278 278 279 279 279 278 278 278 279 279 278 278 279 280 280 281 281 281 281 282 283 283 283 284 284 283 281 280 280 281 281 282 282 282 282 283 284
276 277 277 277 277 278 279 280 280 279 279 279 279 279 279 280 279 279 280 281 281 281 281 282 282 282 282 282 283 283 282 281 280 280 280 280 281 281 282 283 283 283 283
277 277 277 277 278 278 279 279 279 280 280 280 280 280 281 281 281 280 281 281 281 281 281 281 282 282 282 282 282 281 280 280 280 280 280 280 280 280 281 282 282 282 284
278 278 279 279 279 280 280 280 281 281 281 281 281 281 282 282 282 281 281 281 281 281 281 281 281 281 282 282 281 280 280 279 279 279 279 278 278 279 280 281 282 283 285
279 280 280 280 281 281 281 282 282 283 283 282 281 282 283 283 284 283 282 281 281 280 280 280 281 281 282 282 281 281 280 279 278 277 277 277 277 279 280 281 283 284 286
281 281 281 281 281 281 282 282 283 283 283 282 282 282 283 283 283 283 282 282 281 280 280 280 281 282 282 282 281 280 280 278 277 276 276 276 277 279 280 281 282 284 285
281 281 280 280 281 282 282 283 283 283 282 282 282 283 282 282 282 282 282 282 281 280 279 280 281 281 281 280 279 278 277 277 276 276 275 276 277 278 278 279 281 284 284
281 281 281 281 282 282 283 283 283 283 282 281 282 281 281 281 281 282 282 281 280 279 279 279 280 280 279 278 278 276 276 276 275 275 275 275 276 276 277 277 280 282 282
Height
5637 5637 5638 5639 5641 5643 5645 5647 5650 5654 5657 5661 5664 5666 5669 5672 5676 5679 5681 5684 5686 5688 5690 5691 5693 5694 5695 5695 5695 5696 5696 5695 5695 5693 5691 5690 5688 5686 5684 5682 5679 5677 5674
5631 5632 5632 5633 5635 5636 5638 5640 5643 5646 5649 5651 5654 5657 5659 5662 5665 5668 5671 5673 5675 5677 5678 5680 5681 5682 5682 5683 5683 5683 5683 5682 5682 5681 5679 5677 5675 5672 5670 5668 5665 5663 5660
5626 5626 5627 5627 5628 5630 5631 5633 5635 5637 5639 5642 5645 5647 5650 5652 5655 5657 5660 5662 5663 5665 5667 5668 5669 5670 5670 5671 5671 5670 5670 5669 5669 5668 5666 5663 5661 5658 5656 5654 5651 5648 5645
5621 5621 5621 5622 5622 5623 5624 5626 5627 5629 5631 5633 5635 5638 5640 5642 5644 5646 5648 5650 5652 5653 5655 5656 5657 5657 5657 5657 5657 5657 5656 5656 5655 5653 5652 5649 5647 5644 5642 5639 5637 5633 5630
5615 5615 5616 5616 5616 5616 5616 5617 5619 5621 5622 5624 5626 5628 5630 5631 5633 5635 5637 5638 5640 5641 5642 5643 5644 5644 5644 5644 5644 5643 5643 5641 5640 5639 5637 5635 5633 5630 5628 5625 5622 5619 5616
5609 5609 5609 5609 5609 5609 5609 5610 5611 5612 5613 5614 5616 5618 5619 5621 5622 5624 5626 5627 5628 5629 5630 5631 5631 5631 5631 5631 5630 5629 5628 5627 5626 5624 5622 5620 5618 5615 5613 5610 5607 5605 5602
5602 5602 5601 5601 5601 5601 5601 5601 5602 5602 5603 5605 5606 5607 5609 5610 5611 5612 5614 5615 5616 5617 5617 5618 5618 5618 5617 5617 5616 5615 5613 5612 5610 5609 5607 5605 5603 5600 5598 5595 5592 5589 5586
5594 5594 5593 5593 5593 5593 5593 5593 5593 5594 5594 5595 5596 5597 5598 5598 5599 5601 5601 5603 5604 5604 5604 5604 5604 5604 5603 5602 5601 5600 5598 5596 5595 5593 5592 5590 5587 5584 5582 5579 5577 5574 5571
5586 5586 5585 5585 5584 5584 5584 5584 5584 5585 5585 5586 5586 5587 5587 5587 5587 5588 5588 5589 5590 5590 5590 5590 5590 5589 5589 5587 5587 5585 5584 5582 5579 5578 5576 5574 5571 5568 5566 5563 5561 5558 5556
5578 5577 5576 5576 5576 5575 5575 5575 5575 5575 5575 5575 5576 5576 5576 5576 5575 5575 5575 5575 5576 5576 5576 5576 5575 5574 5573 5572 5571 5569 5568 5567 5565 5563 5561 5558 5556 5553 5550 5547 5544 5542 5539
5568 5568 5567 5567 5566 5566 5566 5565 5565 5565 5565 5565 5565 5564 5564 5563 5562 5562 5562 5562 5562 5562 5562 5561 5560 5559 5558 5557 5556 5554 5553 5551 5549 5547 5545 5543 5540 5538 5535 5531 5528 5526 5523
5559 5558 5558 5557 5556 5556 5555 5555 5554 5554 5553 5553 5552 5552 5551 5550 5550 5549 5549 5548 5548 5548 5548 5547 5546 5545 5543 5542 5541 5539 5537 5536 5534 5532 5530 5528 5525 5523 5519 5516 5513 5510 5507
5548 5548 5547 5546 5546 5544 5544 5543 5542 5541 5541 5540 5540 5539 5539 5538 5537 5536 5536 5535 5534 5534 5533 5532 5531 5530 5529 5527 5526 5524 5522 5520 5518 5517 5515 5512 5510 5507 5504 5501 5498 5495 5492
5538 5537 5536 5536 5535 5533 5532 5531 5530 5530 5529 5528 5528 5527 5526 5525 5524 5523 5522 5521 5520 5519 5518 5517 5516 5515 5514 5512 5510 5508 5507 5505 5503 5501 5499 5497 5494 5492 5489 5486 5483 5480 5478
5527 5526 5525 5524 5523 5522 5521 5520 5519 5518 5517 5516 5516 5515 5514 5513 5511 5510 5508 5508 5507 5506 5504 5503 5502 5501 5499 5497 5495 5493 5491 5490 5488 5486 5484 5481 5479 5476 5474 5471 5469 5466 5463
5515 5514 5514 5513 5512 5511 5510 5509 5507 5506 5505 5504 5502 5501 5500 5498 5497 5496 5495 5494 5493 5492 5491 5490 5489 5487 5486 5484 5481 5479 5477 5475 5473 5471 5469 5466 5464 5462 5460 5457 5454 5452 5449
5504 5503 5502 5501 5500 5499 5498 5497 5497 5495 5493 5491 5489 5488 5486 5485 5484 5483 5482 5481 5480 5479 5478 5477 5476 5474 5472 5470 5468 5465 5463 5461 5458 5456 5454 5452 5450 5448 5446 5444 5441 5438 5436
5492 5491 5490 5489 5488 5487 5486 5484 5483 5482 5481 5479 5477 5475 5474 5473 5472 5471 5470 5469 5468 5466 5465 5464 5462 5460 5458 5456 5454 5451 5449 5447 5444 5442 5440 5439 5437 5435 5433 5431 5428 5426 5423
5480 5479 5478 5477 5475 5474 5473 5472 5470 5469 5468 5466 5465 5463 5462 5460 5459 5458 5457 5456 5455 5453 5452 5450 5448 5446 5444 5442 5440 5437 5435 5433 5431 5429 5427 5426 5424 5422 5421 5419 5416 5414 5412
5469 5467 5466 5465 5463 5462 5461 5459 5458 5456 5455 5454 5452 5451 5449 5448 5447 5445 5444 5442 5441 5440 5438 5436 5434 5432 5430 5428 5426 5424 5422 5420 5418 5416 5415 5414 5412 5411 5409 5407 5405 5403 5401
5456 5455 5454 5453 5452 5450 5449 5447 5446 5444 5443 5441 5440 5438 5436 5435 5433 5432 5430 5429 5427 5426 5424 5422 5420 5418 5416 5414 5413 5411 5409 5408 5406 5405 5404 5402 5401 5399 5398 5396 5394 5392 5390
5444 5443 5441 5440 5439 5437 5436 5435 5433 5432 5430 5429 5427 5425 5423 5422 5420 5418 5417 5415 5414 5412 5411 5409 5407 5406 5404 5402 5400 5399 5398 5396 5395 5394 5392 5391 5390 5388 5387 5386 5384 5382 5380
5432 5430 5429 5427 5426 5425 5423 5422 5420 5419 5417 5416 5414 5412 5410 5409 5407 5405 5404 5402 5401 5399 5398 5396 5395 5394 5392 5390 5389 5388 5386 5385 5384 5383 5382 5381 5380 5378 5377 5375 5374 5372 5370
5419 5418 5416 5415 5414 5412 5411 5409 5407 5405 5404 5402 5400 5399 5397 5396 5394 5393 5391 5390 5388 5387 5386 5384 5383 5382 5380 5379 5378 5376 5375 5374 5373 5372 5371 5371 5370 5368 5367 5366 5364 5362 5361
5407 5405 5404 5402 5401 5399 5398 5396 5394 5392 5390 5389 5387 5386 5385 5383 5382 5381 5379 5378 5376 5375 5374 5373 5372 5371 5369 5368 5367 5366 5365 5364 5363 5362 5361 5361 5360 5359 5358 5357 5355 5354 5352
5394 5393 5391 5390 5388 5387 5385 5383 5381 5379 5378 5376 5375 5374 5373 5372 5370 5369 5368 5367 5365 5364 5363 5362 5361 5360 5359 5358 5357 5356 5355 5354 5353 5353 5352 5352 5351 5350 5349 5348 5347 5346 5344